Location: Unspecified
(43.4354°N, 0.0000°E)
Time: 06:09:18
(UTC+00:00)

SR - Pass Details

Date: 26 June 2019
Orbit: 575 x 881 km, 66.7° (Epoch: 12 October)

Event Time Altitude Azimuth Distance (km) Brightness Sun altitude
Exits shadow 01:35:04 15° 130° (SE) 1,566 ? -19.9°
Maximum altitude 01:36:20 17° 108° (ESE) 1,472 ? -19.8°
Drops below altitude 10° 01:39:08 10° 67° (ENE) 1,903 ? -19.6°
Sets 01:42:00 0° 47° (NE) 2,834 ? -19.4°
